Regional Weather Roundup
Issued by NWS Midland/Odessa, TX

Skip options and go directly to product.
Home | Oldest Version | Previous Version | Current Version | All | Graphics & Text | Save Text | Print | Product List | Glossary On

Skip product version selection by date and time.   
981
ASUS44 KMAF 230010
RWRMAF
MIDLAND AREA WEATHER ROUNDUP
NATIONAL WEATHER SERVICE MIDLAND TX
600 PM CST SUN JAN 22 2017

...IN SOUTHWEST TEXAS AND SOUTHEAST NEW MEXICO...

CITY           SKY/WX    TMP DP  RH WIND       PRES   REMARKS
ALPINE         CLEAR     53  21  29 SW14G20   30.15R
ANDREWS        FAIR      57  16  19 NW12G18   30.01R
ARTESIA        CLEAR     55  19  24 SW13      30.03R
BIG SPRING     CLEAR     59  25  26 W8        30.01R
CARLSBAD       CLEAR     56  16  20 W16       30.02R
DRYDEN           N/A     67  12  12 NW10      29.99R
FORT STOCKTON  CLEAR     59  12  15 W15G26    30.04R
GUAD PASS      CLEAR     47  19  33 SW24G38   30.09S WCI  39
HOBBS          CLEAR     55  14  19 W9        30.03R
MARFA          CLEAR     49  19  30 W18       30.14R
MIDLAND AIRPK  CLEAR     61  19  19 W9        30.01R
MIDLAND INTL   CLEAR     60  17  18 W12       30.00R
ODESSA         CLEAR     59  14  17 NW12      30.01R
PECOS          CLEAR     60  16  18 W16       30.04R
PRESIDIO       FAIR      62  20  20 W10       30.10F
SEMINOLE       CLEAR     57  17  21 W8        30.00S
SNYDER         CLEAR     58  29  32 NW7       29.97S
WINK           CLEAR     61  13  15 W12       30.01R
$$
...OTHER STATIONS IN TEXAS...

CITY           SKY/WX    TMP DP  RH WIND       PRES   REMARKS
ABILENE        CLEAR     57  29  34 NW9       29.95R
AMARILLO       CLEAR     50  27  40 N12G17    29.97R
AUSTIN         CLEAR     66  32  28 NW14G26   29.86R
BROWNSVILLE    CLEAR     76  23  14 NW16G29   29.88R
CORPUS CHRISTI CLEAR     73  29  19 NW21G30   29.85R
DALLAS FTW     CLEAR     61  36  39 NW18      29.81R
DEL RIO        CLEAR     68  24  19 NW10      29.96R
EL PASO        PTCLDY    53  23  31 SW13      30.12R
HOUSTON INT    PTCLDY    63  44  50 NW18G30   29.75R
LUBBOCK        PTCLDY    55  27  34 N7        29.96R
SAN ANGELO     CLEAR     61  27  27 NW9       29.97R
SAN ANTONIO    CLEAR     66  33  29 NW17G25   29.91R
WACO           CLEAR     62  35  36 NW22G32   29.83R
WICHITA FALLS  NOT AVBL
$$
...OTHER LOCATIONS IN NEW MEXICO...

CITY           SKY/WX    TMP DP  RH WIND       PRES   REMARKS
ALAMAGORDO     CLEAR     50  19  29 NW5       30.12R
ALBUQUERQUE    MOCLDY    42  20  41 CALM      30.11R
CANNON AFB     CLEAR     52  14  22 SW6       29.98R
CLOVIS         CLEAR     52  18  25 W9        29.98R
HOLLOMAN AFB   CLEAR     50  23  34 CALM      30.14S
ROSWELL        CLEAR     58  12  16 NW3       30.02R
RUIDOSO        CLEAR     39  14  35 NW13      30.09R WCI  32
SANTA FE       CLOUDY    36  19  50 NW7       30.08R WCI  30
TRUTH OR CONSE PTCLDY    48  23  37 S13       30.09R
TUCUMCARI      CLEAR     54  10  17 S3        29.94R
$$